Location: Hiekkapohja
(62.3333°N, 25.7833°E)
Time: 00:13:34
(UTC+00:00)

Okean 2 Rocket - Pass Details

Date: 07 August 2020
Orbit: 616 x 642 km, 82.5° (Epoch: 20 September)

Event Time Altitude Azimuth Distance (km) Brightness Sun altitude
Exits shadow 00:41:47 - 223° (SW) 2,168 5.2 -6.7°
Reaches altitude 10° 00:42:11 10° 225° (SW) 2,019 5.0 -6.7°
Maximum altitude 00:46:27 42° 296° (WNW) 917 3.9 -6.4°
Drops below altitude 10° 00:50:46 10° 8° (N) 2,045 6.9 -6.1°
Sets 00:53:09 0° 16° (NNE) 2,962 8.1 -6.0°
